User: anonymous   Login
Location: Observatoire
(46.1952°N, 5.3391°E)
Time: 01:03:28
(UTC+02:00)
Language:

STARS - Orbit

View from above orbital plane
View from above orbital plane
View from above satellite
View from above satellite

Ground track
Ground track

The orbit data is extracted from the following two-line orbital elements,

1 33498U 09002G   24115.34165764  .00008393  00000-0  99241-3 0  9998
2 33498  98.1223  28.5253 0009005 214.6174 145.4455 14.84867121821683
Epoch (UTC): 24 April 2024 08:11:59
Eccentricity: 0.0009005
inclination: 98.1223°
perigee height: 608 km
apogee height: 620 km
right ascension of ascending node: 28.5253°
argument of perigee: 214.6174°
revolutions per day: 14.84867121
mean anomaly at epoch: 145.4455°
orbit number at epoch: 82168

The dashed part of the orbit path shows where the satellite is in the earth's shadow,  

DLR